QPF
0.02 0.02 0.01 0.01 0.01 0.02 0.01 0.01 0.01 0.00 0.00 0.00 0.00 0.00 0.00 0.00 0.00 0.00 0.00 0.01 0.01 0.00 0.00 0.00 0.00 0.00 0.00 0.01 0.01 0.01 0.02 0.06 0.07 0.06 0.07 0.07 0.06 0.04 0.03 0.02 0.01 0.01 0.01 0.01
0.02 0.01 0.00 0.01 0.01 0.02 0.03 0.02 0.01 0.01 0.01 0.01 0.01 0.00 0.00 0.00 0.01 0.01 0.01 0.01 0.00 0.00 0.00 0.00 0.00 0.01 0.00 0.00 0.01 0.01 0.01 0.04 0.08 0.07 0.06 0.06 0.05 0.04 0.04 0.03 0.02 0.01 0.01 0.01
0.01 0.01 0.00 0.00 0.01 0.01 0.03 0.03 0.02 0.02 0.02 0.02 0.02 0.01 0.01 0.01 0.01 0.01 0.01 0.01 0.00 0.00 0.00 0.00 0.00 0.00 0.00 0.01 0.01 0.01 0.01 0.01 0.04 0.08 0.09 0.07 0.08 0.06 0.05 0.04 0.02 0.01 0.01 0.02
0.01 0.00 0.01 0.01 0.01 0.01 0.02 0.02 0.03 0.03 0.05 0.04 0.02 0.02 0.02 0.01 0.01 0.01 0.01 0.01 0.01 0.00 0.00 0.00 0.00 0.00 0.00 0.00 0.01 0.01 0.01 0.01 0.02 0.04 0.09 0.09 0.08 0.08 0.04 0.03 0.02 0.01 0.01 0.01
0.01 0.01 0.01 0.01 0.00 0.00 0.01 0.01 0.03 0.04 0.06 0.04 0.02 0.01 0.01 0.01 0.01 0.01 0.00 0.01 0.01 0.00 0.00 0.00 0.00 0.00 0.00 0.00 0.01 0.01 0.01 0.01 0.01 0.02 0.04 0.07 0.08 0.08 0.08 0.06 0.04 0.02 0.02 0.02
0.01 0.01 0.01 0.00 0.00 0.00 0.01 0.02 0.03 0.05 0.05 0.03 0.02 0.01 0.01 0.01 0.01 0.01 0.00 0.00 0.01 0.01 0.01 0.00 0.00 0.00 0.00 0.00 0.01 0.01 0.01 0.01 0.01 0.01 0.02 0.04 0.05 0.07 0.08 0.08 0.06 0.04 0.03 0.03
0.02 0.01 0.01 0.01 0.00 0.00 0.02 0.04 0.04 0.04 0.03 0.02 0.01 0.01 0.01 0.01 0.01 0.01 0.00 0.00 0.01 0.01 0.01 0.01 0.00 0.00 0.00 0.00 0.01 0.01 0.01 0.01 0.01 0.01 0.01 0.02 0.04 0.04 0.04 0.05 0.05 0.05 0.05 0.05
0.02 0.02 0.01 0.01 0.01 0.01 0.03 0.03 0.02 0.02 0.01 0.01 0.00 0.01 0.01 0.01 0.01 0.00 0.00 0.00 0.01 0.01 0.01 0.01 0.01 0.01 0.00 0.00 0.00 0.01 0.01 0.01 0.01 0.01 0.01 0.01 0.02 0.04 0.04 0.03 0.04 0.04 0.05 0.06
0.01 0.01 0.01 0.01 0.01 0.02 0.02 0.01 0.01 0.01 0.01 0.00 0.00 0.00 0.00 0.01 0.00 0.00 0.00 0.00 0.01 0.01 0.02 0.01 0.01 0.00 0.00 0.00 0.00 0.02 0.02 0.01 0.01 0.01 0.01 0.01 0.02 0.03 0.04 0.04 0.04 0.03 0.03 0.04
0.01 0.01 0.01 0.01 0.01 0.01 0.01 0.00 0.01 0.01 0.02 0.01 0.00 0.00 0.00 0.00 0.00 0.00 0.00 0.01 0.01 0.01 0.01 0.02 0.01 0.00 0.00 0.00 0.00 0.01 0.03 0.02 0.01 0.01 0.00 0.01 0.02 0.02 0.03 0.03 0.04 0.03 0.02 0.02
0.02 0.02 0.01 0.00 0.00 0.00 0.00 0.00 0.01 0.01 0.01 0.01 0.00 0.00 0.00 0.00 0.00 0.00 0.00 0.00 0.01 0.01 0.01 0.02 0.01 0.00 0.00 0.00 0.01 0.01 0.04 0.02 0.01 0.01 0.00 0.00 0.01 0.02 0.03 0.04 0.04 0.04 0.03 0.03
0.02 0.03 0.02 0.01 0.00 0.00 0.00 0.00 0.01 0.01 0.01 0.01 0.01 0.00 0.00 0.00 0.00 0.00 0.00 0.00 0.00 0.01 0.01 0.02 0.01 0.01 0.01 0.01 0.01 0.01 0.02 0.02 0.01 0.01 0.01 0.00 0.00 0.01 0.02 0.03 0.04 0.05 0.05 0.04
0.04 0.05 0.03 0.01 0.01 0.00 0.00 0.00 0.00 0.01 0.02 0.01 0.01 0.00 0.00 0.00 0.00 0.00 0.00 0.00 0.00 0.00 0.01 0.01 0.02 0.01 0.01 0.01 0.01 0.01 0.01 0.01 0.01 0.01 0.01 0.01 0.01 0.01 0.01 0.01 0.02 0.02 0.04 0.05
0.04 0.05 0.03 0.02 0.01 0.01 0.00 0.00 0.00 0.01 0.02 0.01 0.00 0.00 0.00 0.00 0.00 0.00 0.00 0.00 0.00 0.00 0.00 0.01 0.01 0.02 0.02 0.01 0.01 0.01 0.01 0.01 0.01 0.00 0.00 0.01 0.01 0.02 0.02 0.03 0.03 0.02 0.02 0.03
0.05 0.06 0.03 0.01 0.01 0.00 0.00 0.00 0.00 0.01 0.01 0.01 0.00 0.00 0.00 0.00 0.00 0.00 0.00 0.00 0.00 0.00 0.00 0.00 0.01 0.01 0.02 0.02 0.01 0.01 0.01 0.01 0.00 0.00 0.00 0.01 0.01 0.02 0.02 0.03 0.04 0.04 0.03 0.03
0.04 0.05 0.03 0.02 0.01 0.00 0.00 0.00 0.00 0.00 0.00 0.00 0.00 0.00 0.00 0.00 0.00 0.00 0.00 0.00 0.00 0.00 0.00 0.00 0.00 0.01 0.01 0.02 0.02 0.01 0.01 0.01 0.01 0.01 0.01 0.02 0.03 0.02 0.01 0.01 0.02 0.03 0.04 0.04
0.05 0.05 0.05 0.03 0.01 0.01 0.01 0.00 0.00 0.00 0.00 0.00 0.00 0.00 0.00 0.00 0.00 0.00 0.00 0.00 0.00 0.00 0.00 0.00 0.00 0.00 0.01 0.01 0.01 0.02 0.03 0.02 0.02 0.02 0.03 0.04 0.04 0.02 0.02 0.01 0.02 0.02 0.02 0.03
0.05 0.04 0.05 0.04 0.02 0.02 0.00 0.00 0.00 0.00 0.00 0.00 0.00 0.00 0.00 0.00 0.00 0.00 0.00 0.00 0.00 0.00 0.00 0.00 0.00 0.00 0.00 0.01 0.01 0.02 0.03 0.03 0.03 0.03 0.04 0.05 0.06 0.04 0.02 0.03 0.02 0.01 0.02 0.03
0.02 0.04 0.07 0.06 0.03 0.01 0.00 0.00 0.00 0.00 0.00 0.00 0.00 0.00 0.00 0.00 0.00 0.00 0.00 0.00 0.00 0.00 0.00 0.00 0.00 0.00 0.00 0.00 0.01 0.01 0.02 0.04 0.04 0.04 0.03 0.03 0.04 0.04 0.04 0.04 0.02 0.02 0.02 0.03
0.02 0.04 0.07 0.07 0.05 0.01 0.00 0.00 0.00 0.00 0.00 0.00 0.00 0.00 0.00 0.00 0.00 0.00 0.00 0.00 0.00 0.00 0.00 0.00 0.00 0.00 0.00 0.00 0.01 0.01 0.02 0.04 0.04 0.04 0.03 0.03 0.03 0.03 0.04 0.06 0.05 0.04 0.03 0.04
0.02 0.05 0.06 0.05 0.04 0.01 0.00 0.00 0.00 0.01 0.00 0.00 0.00 0.00 0.00 0.00 0.00 0.00 0.00 0.00 0.00 0.00 0.00 0.00 0.00 0.00 0.01 0.01 0.01 0.01 0.01 0.03 0.04 0.04 0.03 0.04 0.03 0.03 0.04 0.05 0.07 0.06 0.04 0.04
0.01 0.02 0.02 0.03 0.05 0.02 0.00 0.00 0.00 0.00 0.00 0.00 0.00 0.00 0.00 0.00 0.00 0.00 0.00 0.00 0.00 0.00 0.00 0.00 0.01 0.01 0.01 0.01 0.01 0.00 0.01 0.02 0.03 0.03 0.04 0.04 0.05 0.05 0.05 0.05 0.05 0.05 0.03 0.04
0.01 0.01 0.01 0.01 0.01 0.00 0.00 0.00 0.00 0.00 0.00 0.00 0.00 0.00 0.00 0.00 0.00 0.00 0.00 0.00 0.00 0.01 0.01 0.01 0.01 0.01 0.01 0.00 0.00 0.01 0.01 0.02 0.03 0.03 0.04 0.05 0.05 0.04 0.05 0.05 0.05 0.04 0.04 0.04
0.02 0.01 0.02 0.01 0.00 0.00 0.00 0.00 0.00 0.00 0.00 0.00 0.00 0.00 0.00 0.00 0.00 0.00 0.00 0.00 0.00 0.01 0.01 0.01 0.01 0.01 0.00 0.00 0.00 0.01 0.01 0.02 0.02 0.03 0.04 0.05 0.05 0.03 0.03 0.04 0.04 0.04 0.05 0.05
0.01 0.02 0.02 0.02 0.01 0.01 0.01 0.01 0.01 0.00 0.00 0.00 0.00 0.00 0.00 0.00 0.00 0.00 0.00 0.00 0.00 0.01 0.02 0.02 0.01 0.01 0.01 0.00 0.00 0.00 0.01 0.01 0.02 0.02 0.03 0.04 0.04 0.03 0.04 0.04 0.03 0.03 0.04 0.05
0.00 0.00 0.01 0.01 0.01 0.01 0.01 0.01 0.01 0.01 0.00 0.00 0.00 0.00 0.00 0.00 0.00 0.00 0.00 0.00 0.00 0.01 0.02 0.02 0.01 0.01 0.01 0.00 0.00 0.00 0.01 0.01 0.02 0.02 0.03 0.04 0.04 0.04 0.04 0.04 0.03 0.03 0.04 0.04
MSLP
1009.17 1009.49 1009.77 1010.00 1010.20 1010.36 1010.48 1010.52 1010.45 1010.24 1009.85 1009.30 1008.60 1007.80 1006.98 1006.22 1005.59 1005.15 1004.92 1004.89 1005.01 1005.22 1005.46 1005.66 1005.80 1005.85 1005.85 1005.80 1005.75 1005.74 1005.77 1005.85 1005.96 1006.08 1006.18 1006.24 1006.24 1006.20 1006.12 1006.03 1005.94 1005.87 1005.83 1005.82
1009.10 1009.33 1009.53 1009.73 1009.93 1010.12 1010.29 1010.40 1010.39 1010.21 1009.84 1009.27 1008.53 1007.68 1006.80 1006.00 1005.36 1004.93 1004.75 1004.78 1004.99 1005.29 1005.62 1005.89 1006.07 1006.15 1006.14 1006.07 1005.99 1005.94 1005.93 1005.98 1006.06 1006.16 1006.23 1006.25 1006.22 1006.13 1005.99 1005.84 1005.69 1005.57 1005.48 1005.43
1009.04 1009.19 1009.33 1009.50 1009.71 1009.95 1010.19 1010.37 1010.42 1010.28 1009.93 1009.35 1008.57 1007.67 1006.75 1005.91 1005.25 1004.83 1004.68 1004.76 1005.03 1005.40 1005.78 1006.10 1006.31 1006.39 1006.37 1006.28 1006.17 1006.08 1006.04 1006.06 1006.12 1006.19 1006.25 1006.25 1006.20 1006.08 1005.91 1005.72 1005.53 1005.37 1005.24 1005.16
1008.97 1009.05 1009.16 1009.33 1009.56 1009.85 1010.15 1010.40 1010.51 1010.41 1010.08 1009.50 1008.70 1007.77 1006.81 1005.94 1005.26 1004.84 1004.70 1004.81 1005.12 1005.52 1005.94 1006.29 1006.51 1006.59 1006.55 1006.44 1006.30 1006.18 1006.11 1006.10 1006.14 1006.20 1006.24 1006.24 1006.17 1006.04 1005.86 1005.65 1005.44 1005.26 1005.10 1004.99
1008.85 1008.89 1008.99 1009.16 1009.42 1009.76 1010.12 1010.43 1010.60 1010.55 1010.23 1009.66 1008.85 1007.91 1006.93 1006.05 1005.36 1004.93 1004.79 1004.91 1005.23 1005.66 1006.09 1006.44 1006.67 1006.75 1006.70 1006.57 1006.41 1006.26 1006.17 1006.14 1006.16 1006.20 1006.23 1006.21 1006.14 1006.01 1005.82 1005.60 1005.39 1005.19 1005.02 1004.88
1008.64 1008.67 1008.76 1008.95 1009.25 1009.63 1010.04 1010.40 1010.61 1010.59 1010.31 1009.75 1008.97 1008.03 1007.06 1006.18 1005.49 1005.07 1004.93 1005.05 1005.37 1005.79 1006.23 1006.58 1006.81 1006.89 1006.84 1006.70 1006.53 1006.36 1006.24 1006.18 1006.17 1006.19 1006.19 1006.16 1006.08 1005.94 1005.75 1005.53 1005.32 1005.12 1004.95 1004.80
1008.34 1008.36 1008.46 1008.67 1008.99 1009.40 1009.85 1010.23 1010.47 1010.49 1010.24 1009.72 1008.97 1008.07 1007.14 1006.29 1005.62 1005.22 1005.09 1005.21 1005.52 1005.93 1006.35 1006.70 1006.93 1007.01 1006.96 1006.83 1006.64 1006.46 1006.32 1006.23 1006.19 1006.16 1006.14 1006.08 1005.97 1005.82 1005.63 1005.42 1005.21 1005.02 1004.85 1004.69
1007.93 1007.96 1008.07 1008.29 1008.62 1009.05 1009.50 1009.90 1010.16 1010.20 1009.99 1009.51 1008.82 1007.99 1007.13 1006.34 1005.73 1005.36 1005.24 1005.36 1005.65 1006.05 1006.45 1006.79 1007.01 1007.10 1007.06 1006.92 1006.74 1006.55 1006.39 1006.27 1006.19 1006.12 1006.05 1005.95 1005.82 1005.65 1005.45 1005.23 1005.03 1004.85 1004.68 1004.53
1007.48 1007.50 1007.62 1007.84 1008.17 1008.58 1009.02 1009.40 1009.65 1009.71 1009.54 1009.13 1008.52 1007.79 1007.02 1006.33 1005.79 1005.46 1005.37 1005.49 1005.77 1006.13 1006.51 1006.82 1007.03 1007.12 1007.08 1006.96 1006.78 1006.59 1006.42 1006.27 1006.15 1006.04 1005.93 1005.79 1005.62 1005.43 1005.21 1005.00 1004.79 1004.61 1004.45 1004.29
1007.02 1007.05 1007.17 1007.38 1007.68 1008.06 1008.45 1008.79 1009.02 1009.08 1008.93 1008.59 1008.07 1007.45 1006.81 1006.22 1005.77 1005.51 1005.45 1005.57 1005.82 1006.15 1006.49 1006.77 1006.96 1007.04 1007.01 1006.90 1006.74 1006.55 1006.38 1006.22 1006.07 1005.93 1005.78 1005.61 1005.41 1005.19 1004.96 1004.73 1004.51 1004.32 1004.16 1004.00
1006.63 1006.68 1006.80 1006.99 1007.25 1007.56 1007.88 1008.15 1008.33 1008.36 1008.23 1007.94 1007.52 1007.01 1006.49 1006.02 1005.68 1005.48 1005.45 1005.57 1005.80 1006.09 1006.38 1006.62 1006.78 1006.85 1006.83 1006.73 1006.59 1006.43 1006.27 1006.11 1005.96 1005.81 1005.64 1005.45 1005.23 1004.98 1004.73 1004.48 1004.24 1004.02 1003.83 1003.65
1006.37 1006.45 1006.56 1006.72 1006.93 1007.16 1007.38 1007.56 1007.65 1007.64 1007.50 1007.24 1006.89 1006.48 1006.08 1005.73 1005.48 1005.35 1005.36 1005.48 1005.68 1005.93 1006.17 1006.37 1006.51 1006.57 1006.56 1006.49 1006.38 1006.26 1006.12 1005.99 1005.86 1005.71 1005.54 1005.34 1005.11 1004.85 1004.56 1004.28 1004.00 1003.73 1003.49 1003.27
1006.25 1006.36 1006.48 1006.61 1006.75 1006.89 1006.99 1007.05 1007.04 1006.94 1006.77 1006.51 1006.21 1005.89 1005.58 1005.33 1005.17 1005.11 1005.15 1005.28 1005.47 1005.69 1005.90 1006.07 1006.19 1006.26 1006.27 1006.23 1006.17 1006.09 1006.01 1005.91 1005.81 1005.69 1005.53 1005.33 1005.09 1004.81 1004.49 1004.15 1003.81 1003.48 1003.17 1002.87
1006.24 1006.39 1006.52 1006.63 1006.69 1006.72 1006.70 1006.62 1006.48 1006.29 1006.04 1005.77 1005.49 1005.22 1004.99 1004.83 1004.75 1004.76 1004.85 1005.00 1005.19 1005.40 1005.60 1005.77 1005.90 1005.99 1006.03 1006.04 1006.03 1006.01 1005.98 1005.93 1005.87 1005.77 1005.63 1005.44 1005.18 1004.87 1004.50 1004.10 1003.69 1003.27 1002.85 1002.46
1006.26 1006.46 1006.60 1006.67 1006.67 1006.59 1006.43 1006.21 1005.94 1005.63 1005.31 1005.00 1004.72 1004.49 1004.32 1004.24 1004.24 1004.32 1004.47 1004.67 1004.90 1005.13 1005.36 1005.55 1005.72 1005.84 1005.93 1006.00 1006.05 1006.08 1006.09 1006.09 1006.06 1005.98 1005.85 1005.64 1005.37 1005.01 1004.59 1004.12 1003.61 1003.09 1002.57 1002.07
1006.24 1006.47 1006.61 1006.65 1006.57 1006.39 1006.11 1005.76 1005.36 1004.94 1004.55 1004.19 1003.90 1003.70 1003.60 1003.59 1003.68 1003.85 1004.08 1004.36 1004.65 1004.95 1005.24 1005.49 1005.71 1005.89 1006.04 1006.17 1006.26 1006.34 1006.38 1006.40 1006.38 1006.30 1006.15 1005.92 1005.61 1005.20 1004.72 1004.16 1003.56 1002.93 1002.30 1001.69
1006.07 1006.30 1006.43 1006.43 1006.29 1006.01 1005.64 1005.18 1004.68 1004.19 1003.73 1003.36 1003.08 1002.92 1002.88 1002.96 1003.14 1003.42 1003.76 1004.14 1004.53 1004.93 1005.30 1005.64 1005.93 1006.19 1006.40 1006.57 1006.69 1006.79 1006.84 1006.84 1006.79 1006.68 1006.49 1006.22 1005.85 1005.39 1004.84 1004.21 1003.52 1002.80 1002.07 1001.37
1005.68 1005.89 1005.99 1005.93 1005.74 1005.40 1004.95 1004.43 1003.89 1003.36 1002.90 1002.54 1002.30 1002.20 1002.25 1002.43 1002.73 1003.13 1003.59 1004.09 1004.61 1005.12 1005.60 1006.03 1006.41 1006.73 1006.99 1007.18 1007.31 1007.39 1007.41 1007.36 1007.25 1007.08 1006.83 1006.49 1006.06 1005.54 1004.93 1004.25 1003.50 1002.71 1001.91 1001.12
1005.07 1005.22 1005.26 1005.15 1004.91 1004.54 1004.08 1003.55 1003.02 1002.52 1002.11 1001.81 1001.65 1001.66 1001.81 1002.12 1002.54 1003.07 1003.67 1004.30 1004.94 1005.57 1006.15 1006.67 1007.11 1007.48 1007.76 1007.95 1008.05 1008.08 1008.02 1007.90 1007.71 1007.44 1007.11 1006.70 1006.21 1005.64 1004.99 1004.27 1003.49 1002.67 1001.82 1000.99
1004.26 1004.33 1004.30 1004.15 1003.88 1003.52 1003.08 1002.61 1002.15 1001.75 1001.45 1001.27 1001.25 1001.38 1001.67 1002.11 1002.67 1003.32 1004.04 1004.78 1005.53 1006.25 1006.91 1007.49 1007.97 1008.35 1008.62 1008.78 1008.83 1008.77 1008.63 1008.40 1008.10 1007.74 1007.32 1006.85 1006.31 1005.70 1005.04 1004.31 1003.52 1002.69 1001.83 1000.97
1003.36 1003.32 1003.21 1003.02 1002.76 1002.44 1002.08 1001.73 1001.41 1001.16 1001.02 1001.02 1001.16 1001.45 1001.89 1002.46 1003.13 1003.89 1004.71 1005.53 1006.35 1007.12 1007.82 1008.42 1008.91 1009.28 1009.50 1009.60 1009.57 1009.42 1009.17 1008.83 1008.43 1007.98 1007.48 1006.95 1006.37 1005.75 1005.09 1004.37 1003.60 1002.78 1001.93 1001.06
1002.45 1002.31 1002.13 1001.93 1001.69 1001.45 1001.22 1001.02 1000.89 1000.84 1000.91 1001.10 1001.43 1001.89 1002.47 1003.16 1003.94 1004.77 1005.64 1006.51 1007.35 1008.12 1008.82 1009.40 1009.85 1010.16 1010.33 1010.34 1010.22 1009.97 1009.62 1009.19 1008.70 1008.17 1007.62 1007.04 1006.45 1005.83 1005.17 1004.48 1003.73 1002.93 1002.09 1001.20
1001.64 1001.41 1001.20 1001.00 1000.83 1000.69 1000.61 1000.60 1000.68 1000.86 1001.14 1001.54 1002.06 1002.67 1003.38 1004.17 1005.01 1005.88 1006.76 1007.61 1008.43 1009.17 1009.81 1010.33 1010.72 1010.95 1011.04 1010.97 1010.76 1010.43 1010.00 1009.50 1008.94 1008.36 1007.77 1007.17 1006.57 1005.95 1005.31 1004.63 1003.90 1003.10 1002.25 1001.33
1001.02 1000.74 1000.51 1000.35 1000.26 1000.26 1000.34 1000.53 1000.83 1001.22 1001.72 1002.31 1002.98 1003.73 1004.53 1005.38 1006.24 1007.11 1007.96 1008.76 1009.51 1010.17 1010.73 1011.16 1011.46 1011.61 1011.62 1011.47 1011.20 1010.81 1010.33 1009.78 1009.19 1008.58 1007.97 1007.36 1006.75 1006.13 1005.49 1004.81 1004.06 1003.25 1002.36 1001.39
1000.64 1000.35 1000.15 1000.05 1000.06 1000.20 1000.45 1000.82 1001.31 1001.89 1002.57 1003.31 1004.11 1004.95 1005.81 1006.68 1007.53 1008.35 1009.14 1009.86 1010.51 1011.07 1011.53 1011.86 1012.07 1012.13 1012.07 1011.87 1011.55 1011.13 1010.62 1010.06 1009.46 1008.85 1008.23 1007.62 1007.00 1006.37 1005.70 1004.99 1004.20 1003.33 1002.38 1001.35
1000.52 1000.27 1000.13 1000.12 1000.25 1000.52 1000.92 1001.45 1002.09 1002.82 1003.62 1004.48 1005.35 1006.24 1007.12 1007.96 1008.77 1009.53 1010.22 1010.85 1011.39 1011.84 1012.18 1012.42 1012.54 1012.54 1012.41 1012.18 1011.84 1011.41 1010.90 1010.35 1009.77 1009.16 1008.55 1007.93 1007.29 1006.62 1005.91 1005.14 1004.29 1003.34 1002.31 1001.20
Thickness
5615 5617 5622 5627 5627 5628 5626 5625 5628 5633 5631 5626 5634 5641 5650 5651 5648 5649 5650 5650 5650 5650 5651 5651 5651 5652 5653 5653 5655 5656 5657 5658 5658 5658 5658 5658 5659 5659 5658 5658 5658 5658 5657 5656
5608 5613 5623 5621 5617 5614 5615 5615 5622 5626 5621 5620 5628 5637 5646 5646 5644 5644 5643 5643 5643 5643 5643 5643 5644 5645 5645 5645 5646 5647 5648 5649 5648 5648 5649 5649 5650 5650 5650 5649 5648 5648 5647 5647
5611 5617 5614 5610 5608 5606 5609 5611 5615 5614 5615 5615 5615 5635 5641 5639 5636 5635 5636 5636 5636 5635 5635 5636 5636 5636 5637 5637 5637 5637 5637 5637 5638 5638 5639 5639 5639 5639 5639 5639 5639 5639 5638 5638
5604 5606 5602 5603 5605 5604 5606 5609 5604 5601 5601 5610 5605 5617 5639 5636 5631 5629 5630 5629 5629 5628 5628 5628 5627 5627 5627 5627 5627 5627 5627 5628 5628 5628 5629 5629 5629 5630 5632 5630 5630 5629 5628 5628
5600 5598 5596 5598 5604 5600 5602 5598 5595 5593 5593 5593 5602 5598 5631 5630 5626 5626 5625 5623 5621 5620 5619 5618 5618 5617 5617 5617 5617 5617 5618 5618 5618 5618 5618 5619 5619 5620 5620 5619 5619 5620 5619 5618
5592 5590 5591 5595 5594 5593 5589 5587 5585 5583 5584 5586 5602 5598 5621 5626 5624 5620 5618 5615 5612 5611 5609 5609 5608 5607 5607 5607 5606 5606 5608 5609 5609 5609 5609 5609 5608 5609 5609 5609 5609 5609 5609 5609
5583 5583 5583 5584 5582 5581 5582 5582 5582 5584 5584 5596 5594 5591 5613 5619 5614 5611 5608 5606 5604 5602 5601 5600 5599 5598 5598 5597 5596 5596 5598 5600 5600 5600 5600 5601 5599 5599 5600 5599 5599 5599 5599 5599
5579 5583 5581 5579 5583 5581 5579 5580 5580 5581 5590 5595 5584 5589 5610 5607 5602 5600 5598 5597 5595 5594 5592 5590 5589 5589 5589 5588 5588 5588 5589 5590 5590 5590 5591 5591 5590 5590 5590 5589 5589 5589 5589 5590
5575 5577 5571 5571 5572 5576 5570 5572 5574 5568 5563 5565 5585 5591 5598 5598 5594 5591 5590 5588 5587 5586 5583 5581 5581 5580 5580 5580 5580 5579 5580 5581 5581 5580 5580 5581 5580 5580 5579 5579 5579 5579 5579 5579
5568 5563 5563 5560 5560 5559 5566 5566 5558 5556 5556 5566 5581 5584 5594 5591 5589 5586 5583 5580 5578 5576 5574 5573 5572 5571 5571 5570 5570 5570 5570 5570 5570 5570 5570 5569 5569 5569 5569 5569 5569 5569 5569 5569
5554 5551 5549 5549 5554 5559 5551 5550 5554 5555 5553 5557 5567 5584 5593 5586 5582 5578 5575 5572 5568 5566 5565 5564 5562 5561 5560 5560 5560 5560 5560 5560 5560 5559 5559 5558 5558 5558 5558 5558 5558 5558 5559 5559
5544 5543 5544 5548 5547 5547 5552 5554 5551 5546 5543 5543 5552 5571 5583 5578 5573 5568 5565 5561 5559 5557 5555 5553 5552 5551 5551 5550 5549 5549 5550 5550 5549 5549 5548 5548 5547 5547 5547 5547 5548 5547 5548 5548
5531 5529 5532 5538 5533 5529 5533 5539 5540 5538 5535 5536 5537 5559 5570 5566 5563 5558 5554 5552 5550 5547 5545 5544 5543 5542 5542 5540 5539 5539 5538 5538 5538 5538 5538 5538 5537 5537 5538 5537 5537 5536 5536 5537
5525 5523 5531 5543 5546 5534 5527 5526 5527 5525 5525 5533 5541 5553 5560 5557 5554 5550 5546 5543 5541 5538 5536 5535 5534 5533 5532 5530 5529 5528 5527 5526 5526 5527 5527 5527 5527 5527 5526 5526 5525 5525 5525 5525
5512 5514 5518 5524 5523 5522 5523 5523 5519 5519 5527 5528 5541 5544 5552 5549 5544 5540 5537 5533 5529 5527 5526 5525 5524 5523 5522 5521 5519 5517 5516 5515 5514 5515 5516 5516 5516 5515 5515 5515 5515 5514 5514 5514
5499 5502 5503 5506 5511 5510 5512 5520 5520 5519 5522 5524 5528 5535 5542 5537 5533 5529 5527 5523 5519 5518 5517 5515 5514 5513 5511 5510 5508 5506 5505 5503 5503 5503 5504 5504 5503 5503 5503 5503 5503 5503 5503 5504
5490 5489 5490 5502 5501 5494 5506 5524 5522 5521 5524 5522 5523 5533 5532 5526 5523 5520 5517 5513 5510 5508 5507 5505 5504 5502 5500 5498 5496 5494 5492 5491 5490 5491 5491 5491 5490 5490 5491 5491 5491 5491 5492 5493
5482 5481 5479 5485 5479 5484 5528 5526 5523 5520 5521 5520 5519 5520 5518 5516 5513 5510 5507 5504 5501 5498 5496 5494 5492 5490 5488 5485 5482 5480 5479 5478 5478 5478 5477 5477 5477 5478 5479 5479 5480 5480 5480 5481
5479 5475 5472 5472 5478 5498 5516 5513 5508 5505 5509 5514 5510 5510 5507 5503 5498 5501 5499 5494 5491 5488 5484 5482 5479 5477 5476 5473 5470 5468 5467 5466 5466 5465 5465 5464 5464 5465 5466 5467 5469 5469 5469 5470
5467 5467 5466 5466 5471 5485 5513 5506 5500 5496 5498 5507 5502 5499 5496 5490 5491 5496 5488 5482 5478 5474 5471 5469 5467 5465 5464 5462 5458 5457 5456 5455 5454 5452 5452 5451 5451 5452 5453 5455 5456 5456 5457 5458
5456 5455 5459 5464 5467 5486 5502 5490 5484 5484 5499 5496 5492 5490 5486 5483 5484 5482 5475 5470 5465 5462 5458 5456 5455 5454 5452 5449 5447 5446 5445 5443 5441 5439 5439 5440 5440 5441 5442 5443 5443 5444 5445 5446
5463 5460 5458 5460 5459 5477 5486 5475 5480 5490 5488 5483 5481 5479 5476 5474 5471 5466 5461 5457 5453 5449 5447 5444 5443 5442 5440 5437 5435 5434 5433 5431 5429 5428 5429 5430 5430 5429 5430 5431 5432 5431 5432 5434
5457 5464 5467 5468 5476 5481 5477 5477 5476 5474 5473 5471 5469 5466 5463 5461 5458 5454 5449 5446 5442 5439 5436 5433 5431 5430 5428 5425 5423 5422 5420 5417 5416 5417 5418 5418 5418 5417 5417 5418 5419 5420 5421 5423
5447 5446 5449 5454 5464 5466 5463 5463 5460 5459 5458 5457 5455 5453 5450 5448 5446 5442 5438 5435 5431 5428 5424 5421 5419 5418 5417 5414 5411 5409 5406 5404 5404 5405 5406 5406 5406 5406 5406 5406 5407 5409 5410 5411
5445 5436 5439 5446 5454 5450 5452 5450 5450 5447 5445 5444 5443 5440 5438 5436 5433 5430 5427 5424 5420 5416 5412 5408 5407 5406 5404 5402 5399 5396 5394 5393 5393 5393 5393 5393 5392 5393 5394 5394 5395 5396 5398 5398
5434 5434 5435 5444 5448 5443 5447 5444 5440 5437 5436 5434 5432 5429 5426 5423 5420 5417 5415 5412 5407 5403 5399 5396 5394 5393 5392 5389 5387 5384 5382 5381 5381 5381 5381 5380 5380 5381 5382 5383 5385 5385 5385 5388